Showing default

ASTROCAST-0401, 55110

Orbit data source: Space-Track

ASTROCAST-0401, 55110 is a payload satellite owned by Astrocast (CH) in SSO that was launched on Tue, 03 Jan 2023 UTC via an FALCON 9 launch vehicle from the Air Force Eastern Test Range (AFETR). Payload-class satellites include a variety of spacecraft equipped with specific instruments for various scientific and technological missions. These include communications satellites like Starlink; space stations such as the ISS; scientific satellites like the Hubble; Earth observation satellites from companies like Planet Labs, Umbra, and HawkEye 360; GPS; miniature CubeSats for education and research; and military/defense satellites.

Loading next visibility...
Identifier
55110, 2023-001DF
Orbit
SSO
Country
Flag of UnknownUnknown / SWTZ
Related business
Manufacturer
Astrocast
Mission
Operational Commercial Communications
Bus & Motor
CUBESAT 3U, Unknown motor
Mass
4.5 kg wet, 4.5 kg dry
Launch date (UTC)
2023-01-03 (3 years ago)
Launch vehicle
FALCON 9
Launch site
Air Force Eastern Test Range (AFETR)
Object type
Payload
Rocket body
Debris
Shape & HBR
Box, 0.1 m
Radar Cross Section
0.035 m², Medium (>0.1 m² and < 1m²)

Expand to show TLE details & history
Last TLE update: 14 hours ago

TLE from 14 hours ago
0 ASTROCAST-0401
1 55110U 23001DF  26023.52668377  .00011889  00000-0  47329-3 0  9990
2 55110  97.5609 114.8477 0008409   6.3107 353.8235 15.25376234169137
Epoch: 2026-01-23T12:38Z
TLE epoch observation values (Epoch: 2026-01-23T12:38:25.477Z)
Latitude
-0.00004°
Longitude
162.37733°
Altitude
487.006 km
Speed
7.625 km/s
True Right ascension
07h 39m 23s
True Declination
0° 00' 00"
Sunlit
Object was in full shadow at epoch
Visualization orbit readout
Latitude
Unknown
Longitude
Unknown
Altitude
Unknown
Speed
Unknown
Apparent Right ascension
Unknown
Apparent Declination
Unknown
Sunlit
N/A
Visualization observer readout
Local Sidereal Time
04:04:55
Azimuth
Unknown
Elevation
Unknown
Doppler factor
Unknown
Orbital elements
Apogee altitude
492.394 km
Perigee altitude
480.849 km
Semi-major axis
6,864.758 km
Eccentricity
0.00084
Inclination
97.5609°
RAAN
114.8477°
Arg. of periapsis
6.3107°
True anomaly
353.81312°
Mean anomaly
353.8235°
Eccentric anomaly
353.81831°
Mean motion
3.81597 °/min
Orbital period
94.34 mins
BSTAR
0.00047329
Loading maneuver chart data...
Computing Atmospheric mass density...
Loading historical data...
Loading historical data...
Loading historical data...
Loading historical data...
Loading historical data...
Loading historical data...
Loading historical data...

Documentation

Showing up to 5 results
|